SL-19 DEB, 23482

Orbit data source: Space-Track

SL-19 DEB, 23482 is space debris in LEO originally from a launch on Mon, 26 Dec 1994 UTC launched from the Tyuratam Missile And Space Complex (TTMTR). Debris objects in space refer to the collection of defunct objects orbiting the Earth. Examples of debris include non-operational satellites, rocket bodies, and fragments generated from explosions, collisions, or faulty payload assembly.

Loading next visibility...
Identifier
23482, 1994-085E
Orbit
LEO
Last TLE update
1 day ago
Origin
Manufacturer
Unknown
Mission
Spacecraft
Bus & Motor
Unknown
Mass
Unknown
Launch date (UTC)
1994-12-26 (30 years ago)
Launch vehicle
Unknown
Launch site
Tyuratam Missile And Space Complex (TTMTR)
Object type
Payload
Rocket body
Debris
Shape & HBR
Unknown
Radar Cross Section
Medium (>0.1 m² and <1 m²)

Expand to show TLE details & history

TLE from 1 day ago
0 SL-19 DEB
1 23482U 94085E   25128.11312869 -.00002462  00000-0 -57155-1 0  9994
2 23482  64.6950 178.9560 0394726 246.1292 140.7195 11.30788154250657
Epoch: 2025-05-08T02:42Z
Definitive object data (Epoch: 2025-05-08T02:42:54.318Z)
Latitude
26.57117°
Longitude
-74.3429°
Altitude
2,269.703 km
Speed
6.686 km/s
True Right ascension
12h 50m 17s
True Declination
26° 27' 28"
Sunlit
Object was in daylight at TLE epoch
Visualization TLE readout
Latitude
11.66734°
Longitude
-84.25876°
Altitude
2,198.119 km
Speed
6.742 km/s
Apparent Right ascension
10h 03m 48s
Apparent Declination
-25° 01' 35"
Sunlit
Object is in daylight
Visualization observer readout
Local Sidereal Time
14:21:02
Azimuth
234.775° WSW
Elevation
1.71°
Doppler factor
1
Orbital elements
Apogee altitude
2,336.167 km
Perigee altitude
1,674.339 km
Semi-major axis
8,383.39 km
Eccentricity
0.0394726
Inclination
64.695°
RAAN
178.956°
Arg. of periapsis
246.1292°
True anomaly
143.47668°
Mean anomaly
140.7195°
Eccentric anomaly
142.10851°
Mean motion
2.82757 °/min
BSTAR
-0.057155
Orbital period
127.32 mins
Loading maneuver chart data...
Loading SW <> Apogee altitude chart data...
Loading historical data...
Loading historical data...
Loading historical data...
Loading historical data...
Loading historical data...
Loading historical data...
Loading historical data...

SL-19 DEB Visibility forecast

Observer location: undefined°, undefined°

Span
Click to sort rows by Start time (UTC) header in descending order
Start Az.
Max El. time (UTC)
Max El. Az.
Max El.
End time (UTC)
End Az.
25 mins2025-05-09 06:15:14.630Z239.222° WSW2025-05-09 06:27:14.630Z307.647° NW38.351°2025-05-09 06:40:14.630Z28.83° NE
19 mins2025-05-09 08:35:14.630Z298.092° NW2025-05-09 08:44:14.630Z344.85° N22.64°2025-05-09 08:54:14.630Z36.111° NE
18 mins2025-05-09 10:54:14.630Z333.692° NNW2025-05-09 11:03:14.630Z23.968° NE24.309°2025-05-09 11:12:14.630Z73.635° E
22 mins2025-05-09 13:07:14.630Z331.883° NNW2025-05-09 13:18:14.630Z47.69° ENE41.935°2025-05-09 13:29:14.630Z131.212° SE
19 mins2025-05-09 15:20:14.630Z313.746° NW2025-05-09 15:30:14.630Z250.535° W32.352°2025-05-09 15:39:14.630Z192.61° SSW
22 mins2025-05-10 03:25:14.630Z167.703° S2025-05-10 03:35:14.630Z107.577° ESE33.64°2025-05-10 03:47:14.630Z42.368° NE
24 mins2025-05-10 05:36:14.630Z229.318° WSW2025-05-10 05:47:14.630Z311.411° NW42.273°2025-05-10 06:00:14.630Z30.283° NE
|